Kezdőlap
METAR-TAF:

METAR-TAF

Repülőterek :

Webster City Municipal Airport

Webster City, Iowa, Amerikai Egyesült Államok

földrajzi szélesség: 42-26N, földrajzi hosszúság: 093-52W, magasság: 342 m

Jelenlegi meteorológiai megfigyelések

A jelentés 15 perccel ezelõtt készült, 08:15 UTC
Szélcsend
Hőmérséklet -3°C
Páratartalom 93%
Légköri nyomás 1019 hPa
Látótávolság: 16.1 km
Borult 5000 lábon

METAR: KEBS 270815Z AUTO 00000KT 10SM OVC050 M03/M04 A3010 RMK AO2

Idő: 02:30 (08:30 UTC)


TAF: hiányzik

Meteorológiai megfigyelések és előrejelzések több, mint 4000 repülőtéren (METAR és TAF jelentéseket).

A térképen piros és sárga pontok jelzik az elérhető meteorológiai állomásokat.

Mozgassa az egeret a pont fölött, hogy megjelenjen az állomás neve.

Azután kattintson az időjárási megfigyelések és előrejelzések megtekintéséhez.

A térkép megváltoztatása: kattintson a fekete keresztel jelölt zöld gombra ráközelítéshez, a vonallal jelölt zöld gombra távolításhoz, vagy a zöld nyilakra a szomszédos térképek eléréséhez.


METAR-TAF: